Regional Weather Roundup
Issued by NWS

Home | Current Version | Previous Version | Graphics & Text | Print | Product List | Glossary On
Versions: 1 2 3 4 5 6 7 8 9 10 11 12 13 14 15 16 17 18 19 20 21 22 23 24 25 26 27 28 29 30 31 32 33 34 35 36 37 38 39 40 41 42 43 44 45 46 47 48 49 50
000
ASUS43 KLOT 292306
RWRIL

ILLINOIS REGIONAL WEATHER ROUNDUP
NATIONAL WEATHER SERVICE CHICAGO/ROMEOVILLE IL
600 PM CDT TUE JUL 29 2014

NOTE: "FAIR" INDICATES FEW OR NO CLOUDS BELOW 12,000 FEET WITH NO
SIGNIFICANT WEATHER AND/OR OBSTRUCTIONS TO VISIBILITY.

* THESE STATIONS ARE NOT UNDER NWS QUALITY CONTROL. THEY ALSO MAY NOT
  REPORT WEATHER SUCH AS PRECIPITATION OR FOG.

ILZ001-002-007-009-015-016-024-300000-
NORTHWEST ILLINOIS

CITY           SKY/WX    TMP DP  RH WIND       PRES   REMARKS
MOLINE         SUNNY     78  57  48 W9        30.04F
STERLING*      MOSUNNY   79  57  47 NW8       30.03S HX  80
SAVANNA*       SUNNY     80  54  40 NW10      30.02S HX  80
$$

ILZ003-004-008-010-011-017-018-300000-
NORTH CENTRAL ILLINOIS

CITY           SKY/WX    TMP DP  RH WIND       PRES   REMARKS
ROCKFORD       PTSUNNY   78  58  49 W9        30.02F
FREEPORT*      MOSUNNY   78  61  56 NW7       30.04F
ROCHELLE*      MOSUNNY   74  57  55 W8        30.03S
DE KALB*       CLOUDY    69  61  75 SE5       30.03S
PERU*          MOSUNNY   77  58  50 W10G16    30.03F
$$

ILZ005-006-012>014-019>023-300000-
NORTHEAST ILLINOIS

CITY           SKY/WX    TMP DP  RH WIND       PRES   REMARKS
CHICAGO-OHARE  MOSUNNY   77  55  46 W14       29.98F
CHICAGO-MIDWAY MOSUNNY   77  57  50 W14G20    29.99F
AURORA         MOSUNNY   72  59  63 W8        30.02F
LANSING*       PTSUNNY   71  55  55 W13G18    30.01R
JOLIET*        PTSUNNY   71  57  61 SW9       30.02F
WAUKEGAN       SUNNY     69  59  70 SE7       29.98F
DUPAGE AIRPORT MOSUNNY   74  59  59 W10       30.00F
KANKAKEE*      CLOUDY    71  58  64 W12G21    30.04R
WHEELING       MOSUNNY   80  52  37 NW10      29.99F HX  80
MORRIS*        PTSUNNY   69  64  83 SW7       30.03F
ROMEOVILLE*    PTSUNNY   71  58  63 W8        30.01F
NORTHERLY ISL    N/A     67  60  78 SE5         N/A
$$

LMZ740>746-300000-
SOUTHERN LAKE MICHIGAN

STATION/POSITION SKY/WX   TEMP    WIND        PRES    VSBY  WAVE
                          AIR SEA DIR/SP/G                  HT/PER
                          (F)     (DEG/KT/KT) (MB)    (MI)  (FT/S)
SOUTHERN BUOY              63 62  200/  8/  8 1015.5F         1
WAUKEGAN HARBOR            67     160/  7/  8   N/A
HARRISON CRIB              68     150/  5/  8   N/A
BURNHAM HARBOR             67     180/  4/  6   N/A
CALUMET HARBOR             68     100/  4/  5 1014.7F
MICHIGAN CITY              68      30/  2/  3   N/A
MICHIGAN CITY 6N           68 69  120/  2/  2   N/A           1
ST. JOSEPH                 67 68  220/  2/  4   N/A           1/ 3
$$

ILZ025>027-034>036-040-047-049-050-058-095>099-300000-
WEST-CENTRAL ILLINOIS

CITY           SKY/WX    TMP DP  RH WIND       PRES   REMARKS
QUINCY         SUNNY     77  55  46 NW8       30.09F
GALESBURG*     SUNNY     78  59  51 W7        30.06F
MACOMB*        MOSUNNY   75  59  57 W7        30.09F
JACKSONVILLE*  MOSUNNY   78  58  50 W7        30.09F
PITTSFIELD*    SUNNY     77  55  45 NW6       30.10F
$$

ILZ028>032-037-038-041>044-048-051>054-059>061-300000-
CENTRAL ILLINOIS

CITY           SKY/WX    TMP DP  RH WIND       PRES   REMARKS
PONTIAC        SUNNY     79  57  47 W10       30.04S HX  80
DECATUR        SUNNY     76  55  48 W13       30.07F
PEORIA         SUNNY     80  56  43 W9        30.05F HX  80
LACON*         MOSUNNY   78  55  44 W9G18     30.03S
LINCOLN*       SUNNY     78  54  43 W7        30.04F
SPRINGFIELD    SUNNY     78  58  49 W7        30.08F
TAYLORVILLE    SUNNY     73  54  49 W6        30.08F
$$

ILZ033-039-045-046-055>057-062-063-300000-
EAST-CENTRAL ILLINOIS

CITY           SKY/WX    TMP DP  RH WIND       PRES   REMARKS
CHAMPAIGN      MOSUNNY   75  58  55 W13       30.06F
DANVILLE*      MOSUNNY   74  59  59 W12       30.01F HAZE
RANTOUL*       SUNNY     77  56  48 W8G17     30.06S
MATTOON        SUNNY     75  56  51 W10       30.06F
PARIS*         MOSUNNY   75  59  56 W12       30.06F
$$

ILZ079-100>102-300000-
SOUTHWEST ILLINOIS

CITY           SKY/WX    TMP DP  RH WIND       PRES   REMARKS
ALTON          MOSUNNY   75  57  53 NW7       30.09F
BELLEVILLE     SUNNY     80  55  42 N6        30.08F HX  80
CAHOKIA*       SUNNY     81  53  37 NW7       30.08F HX  80
SPARTA*        SUNNY     77  54  44 N3        30.10F
$$

ILZ064>066-069>071-074>076-080>082-084>086-088>090-092>094-300000-
SOUTH-CENTRAL ILLINOIS

CITY           SKY/WX    TMP DP  RH WIND       PRES   REMARKS
CARBONDALE     SUNNY     79  52  38 NW5       30.10F
CAIRO*         SUNNY     79  54  41 N3        30.10F
EFFINGHAM*     SUNNY     77  48  36 NW8       30.08S
MARION         MOSUNNY   79  54  41 N6        30.10F
MT. VERNON     SUNNY     77  54  44 W7        30.09F
CENTRALIA*     MOSUNNY   81  52  36 NW5       30.09F HX  80
SALEM*         SUNNY    N/A N/A N/A NW6       30.09F
METROPOLIS*    MOSUNNY   78  47  33 NW5       30.09F
$$

ILZ067-068-072-073-078-083-087-091-300000-
SOUTHEAST ILLINOIS

CITY           SKY/WX    TMP DP  RH WIND       PRES   REMARKS
FLORA*         SUNNY     77  52  41 NW8       30.08F
FAIRFIELD*     SUNNY     79  57  47 CALM      30.08F HX  80
HARRISBURG*    SUNNY     77  53  43 NW5       30.10F
ROBINSON*      SUNNY     77  58  51 W12       30.07F
CARMI*         SUNNY     79  57  47 W6        30.07F HX  80
$$

ABBREVIATIONS USED IN REMARKS
   TC - TEMPERATURE IN CELSIUS
  WCI - WIND CHILL INDEX
   HX - HEAT INDEX
  VSB - VISIBILITY
$$



USA.gov is the U.S. government's official web portal to all federal, state and local government web resources and services.